Location: Milo
(50.5667°N, 112.8833°W)
Time: 09:40:15
(UTC+00:00)

Envisat - Visible Passes

Search period start: 30 November 2021 00:00
Search period end: 10 December 2021 00:00
Orbit: 764 x 766 km, 98.2° (Epoch: 29 November)

Date Brightness Start Highest point End Pass type
(mag) Time Alt. Az. Time Alt. Az. Time Alt. Az.
30 Nov 5.9 01:00:22 10° SW 01:03:43 18° W 01:07:06 10° NW visible
30 Nov 5.5 11:23:53 10° NE 11:27:25 19° E 11:30:55 10° SE visible
30 Nov 2.9 13:01:53 10° N 13:06:58 72° WNW 13:12:01 10° SSW visible
01 Dec 4.9 00:21:53 10° SSW 00:26:29 34° W 00:31:07 10° NNW visible
01 Dec 3.5 12:25:03 10° NNE 12:30:05 59° E 12:35:05 10° S visible
01 Dec 4.0 14:04:41 10° N 14:08:46 25° WNW 14:12:49 10° WSW visible
02 Dec 6.4 01:28:32 10° W 01:29:26 10° W 01:30:19 10° WNW visible
02 Dec 4.8 11:48:33 10° NNE 11:53:00 30° E 11:57:25 10° SSE visible
02 Dec 3.2 13:27:21 10° N 13:32:11 45° WNW 13:37:01 10° SW visible
03 Dec 5.7 00:48:10 10° SW 00:52:02 22° W 00:55:55 10° NW visible
03 Dec 5.8 11:12:48 10° NE 11:15:42 15° E 11:18:35 10° ESE visible
03 Dec 2.9 12:50:18 10° NNE 12:55:26 87° WNW 13:00:31 10° SSW visible
03 Dec 4.4 14:30:37 10° NNW 14:33:45 17° NW 14:36:53 10° W visible
04 Dec 4.5 00:10:03 10° SSW 00:14:51 42° W 00:19:41 10° NNW visible
04 Dec 3.9 12:13:33 10° NNE 12:18:29 47° E 12:23:22 10° S visible
04 Dec 3.8 13:52:56 10° N 13:57:19 29° WNW 14:01:39 10° WSW visible
05 Dec 6.1 01:15:18 10° WSW 01:17:41 13° W 01:20:05 10° WNW visible
05 Dec 5.1 11:37:12 10° NE 11:41:20 24° E 11:45:25 10° SE visible
05 Dec 3.0 13:15:43 10° N 13:20:41 55° WNW 13:25:38 10° SW visible
06 Dec 5.4 00:36:07 10° SSW 00:40:21 26° W 00:44:37 10° NW visible
06 Dec 6.0 11:02:02 10° ENE 11:03:58 12° E 11:05:54 10° ESE visible
06 Dec 3.1 12:38:45 10° NNE 12:43:52 77° ESE 12:48:57 10° S visible
06 Dec 4.2 14:18:44 10° NNW 14:22:21 20° WNW 14:25:56 10° WSW visible
06 Dec 4.0 23:58:17 10° S 00:03:14 52° W 00:08:13 10° NNW visible
07 Dec 4.3 12:02:06 10° NNE 12:06:52 38° E 12:11:35 10° SSE visible
07 Dec 3.5 13:41:15 10° N 13:45:51 35° WNW 13:50:26 10° SW visible
08 Dec 5.9 01:02:47 10° SW 01:05:58 16° W 01:09:10 10° NW visible
08 Dec 5.4 11:25:57 10° NE 11:29:38 20° E 11:33:19 10° SE visible
08 Dec 2.9 13:04:06 10° N 13:09:10 68° WNW 13:14:12 10° SSW visible
09 Dec 5.0 00:24:10 10° SSW 00:28:42 32° W 00:33:15 10° NNW visible
09 Dec 3.4 12:27:13 10° NNE 12:32:17 62° ESE 12:37:19 10° S visible
09 Dec 4.0 14:06:56 10° N 14:10:55 24° WNW 14:14:52 10° WSW visible
